Weather History for Imperial, NE

Change the Weather History Date:

Sunday, December 30, 2012

  Actual Average Record
Temperature  
Mean Temperature 19 °F 28 °F  
Max Temperature 28 °F 40 °F 70 °F (1904)
Min Temperature 9 °F 15 °F -16 °F (1990)
Degree Days  
Heating Degree Days 46 38  
Month to date heating degree days 1111 1100  
Cooling Degree Days 0 0  
Month to date cooling degree days 0 0  
Year to date cooling degree days 1382 963  
Moisture  
Dew Point 11 °F    
Average Humidity 72    
Maximum Humidity 88    
Minimum Humidity 55    
Precipitation  
Precipitation 0.00 in 0.02 in 0.33 in (1994)
Sea Level Pressure  
Sea Level Pressure 30.12 in    
Wind  
Wind Speed 7 mph (WNW)    
Max Wind Speed 15 mph    
Max Gust Speed 21 mph    
Visibility 10 miles    
Events      
T = Trace of Precipitation, MM = Missing Value Source: NWS Daily Summary

Daily Weather History Graph

Daily Weather History Graph

Search for Another Location

Airport:

Trip Planner

Search our weather history database for the weather conditions in past years. The results will help you decide how hot, cold, wet, or windy it might be!

Date:

Astronomy

Dec. 30, 2012 Rise Set
Actual Time 7:09 AM MST 4:29 PM MST
Civil Twilight 6:38 AM MST 4:59 PM MST
Nautical Twilight 6:04 AM MST 5:34 PM MST
Astronomical Twilight 5:31 AM MST 6:07 PM MST
Moon 7:02 PM MST (12/30) 8:19 AM MST (12/30)
Length of Visible Light 10h 20m
Length of Day
9h 19m
Waning Gibbous, 95% of the Moon is Illuminated
Dec 30
Waning Gibbous
Jan 4
Last Quarter
Jan 11
New
Jan 18
First Quarter
Jan 26
Full

Hourly Weather History & Observations

Time (MST) Temp. Windchill Dew Point Humidity Pressure Visibility Wind Dir Wind Speed Gust Speed Precip Events Conditions
12:53 AM 12.9 °F 1.6 °F 8.1 °F 81% 30.07 in 10.0 mi SE 8.1 mph - N/A   Clear
1:53 AM 12.9 °F 3.8 °F 9.0 °F 84% 30.06 in 10.0 mi SE 5.8 mph - N/A   Clear
2:53 AM 12.0 °F 0.5 °F 8.1 °F 84% 30.04 in 10.0 mi SE 8.1 mph - N/A   Clear
3:53 AM 14.0 °F 3.9 °F 10.0 °F 84% 30.02 in 10.0 mi SSE 6.9 mph - N/A   Clear
4:53 AM 12.9 °F 1.6 °F 9.0 °F 84% 30.05 in 10.0 mi West 8.1 mph - N/A   Clear
5:53 AM 10.9 °F 1.4 °F 7.0 °F 84% 30.07 in 10.0 mi WNW 5.8 mph - N/A   Clear
6:53 AM 12.0 °F -3.4 °F 7.0 °F 80% 30.08 in 10.0 mi WNW 13.8 mph - N/A   Clear
7:53 AM 12.0 °F -2.7 °F 5.0 °F 73% 30.09 in 10.0 mi WNW 12.7 mph - N/A   Clear
8:53 AM 12.9 °F -1.6 °F 5.0 °F 71% 30.10 in 10.0 mi WNW 12.7 mph - N/A   Clear
9:53 AM 16.0 °F 4.4 °F 7.0 °F 68% 30.11 in 10.0 mi WNW 9.2 mph - N/A   Clear
10:53 AM 21.9 °F 12.5 °F 9.0 °F 58% 30.09 in 10.0 mi NW 8.1 mph - N/A   Clear
11:53 AM 24.1 °F 16.0 °F 10.9 °F 57% 30.09 in 10.0 mi West 6.9 mph - N/A   Clear
12:53 PM 26.1 °F 19.4 °F 12.0 °F 55% 30.08 in 10.0 mi West 5.8 mph - N/A   Clear
1:53 PM 28.0 °F 21.7 °F 15.1 °F 58% 30.09 in 10.0 mi West 5.8 mph - N/A   Clear
2:53 PM 28.0 °F 22.8 °F 17.1 °F 63% 30.12 in 10.0 mi WSW 4.6 mph - N/A   Clear
3:53 PM 26.1 °F 20.5 °F 16.0 °F 66% 30.12 in 10.0 mi WNW 4.6 mph - N/A   Clear
4:53 PM 24.1 °F - 16.0 °F 71% 30.16 in 10.0 mi Calm Calm - N/A   Clear
5:53 PM 21.9 °F 15.7 °F 15.1 °F 75% 30.19 in 10.0 mi WNW 4.6 mph - N/A   Clear
6:53 PM 24.1 °F 16.0 °F 15.1 °F 69% 30.19 in 10.0 mi NW 6.9 mph - N/A   Clear
7:53 PM 21.9 °F 11.7 °F 15.1 °F 75% 30.20 in 10.0 mi NNW 9.2 mph - N/A   Clear
8:53 PM 21.9 °F 13.4 °F 15.1 °F 75% 30.20 in 10.0 mi NNW 6.9 mph - N/A   Clear
9:53 PM 19.0 °F 9.0 °F 12.0 °F 74% 30.19 in 10.0 mi North 8.1 mph - N/A   Clear
10:53 PM 18.0 °F 6.9 °F 12.0 °F 78% 30.21 in 10.0 mi NNW 9.2 mph - N/A   Clear
11:53 PM 15.1 °F 5.2 °F 10.0 °F 80% 30.21 in 10.0 mi NNW 6.9 mph - N/A   Clear